TAM8171 SAAR-SBGR

Flight info

Callsign TAM8171
Flight time 2h 11m
Altitude 37000
Route DABOT2C DABOT DCT PAR UT682 PULEN UM400 UBMOP DCT PUNTO DCT XONUG UZ121 BUXUK
Aircraft A320/M-SDE3FGHIRWY/LB1

Departure

Time 2026-04-30 18:10
Airport Rosario Islas Malvinas International Airport (SAAR)

Arrival

Time 2026-04-30 20:21
Airport São Paulo/Guarulhos–Governor André Franco Montoro International Airport (SBGR)
Time Latitude Longitude Altitude Speed Heading
2026-04-30 17:52 -32.91695 -60.78158 95 ft 0 kts 110°
2026-04-30 18:02 -32.91673 -60.78204 94 ft 4 kts 127°
2026-04-30 18:02 -32.91622 -60.78244 95 ft 1 kts 201°
2026-04-30 18:03 -32.91619 -60.78243 95 ft 0 kts 201°
2026-04-30 18:05 -32.91665 -60.78264 94 ft 9 kts 201°
2026-04-30 18:06 -32.91796 -60.78561 97 ft 9 kts 261°
2026-04-30 18:07 -32.91782 -60.78670 96 ft 0 kts 312°
2026-04-30 18:08 -32.91772 -60.78683 95 ft 5 kts 312°
2026-04-30 18:09 -32.91024 -60.78621 100 ft 99 kts 11°
2026-04-30 18:10 -32.86963 -60.77707 1581 ft 161 kts
2026-04-30 18:11 -32.81263 -60.76397 3101 ft 248 kts 10°
2026-04-30 18:11 -32.76103 -60.75227 5825 ft 254 kts 10°
2026-04-30 18:12 -32.70784 -60.74017 8191 ft 264 kts
2026-04-30 18:13 -32.67140 -60.73154 9686 ft 271 kts 15°
2026-04-30 18:13 -32.62862 -60.67994 10629 ft 330 kts 51°
2026-04-30 18:14 -32.60183 -60.63417 11652 ft 344 kts 51°
2026-04-30 18:15 -32.55958 -60.56291 13227 ft 361 kts 50°
2026-04-30 18:15 -32.51513 -60.48861 14727 ft 375 kts 50°
2026-04-30 18:16 -32.48464 -60.43768 15725 ft 382 kts 50°
2026-04-30 18:16 -32.45363 -60.38581 16717 ft 390 kts 50°
2026-04-30 18:17 -32.43770 -60.35915 17230 ft 394 kts 50°
2026-04-30 18:17 -32.42179 -60.33256 17747 ft 397 kts 50°
2026-04-30 18:17 -32.38946 -60.27883 18711 ft 405 kts 50°
2026-04-30 18:18 -32.37307 -60.25162 19196 ft 407 kts 50°
2026-04-30 18:18 -32.35656 -60.22418 19699 ft 410 kts 50°
2026-04-30 18:18 -32.33999 -60.19665 20209 ft 413 kts 50°
2026-04-30 18:18 -32.32349 -60.16925 20715 ft 415 kts 49°
2026-04-30 18:19 -32.30669 -60.14138 21216 ft 418 kts 49°
2026-04-30 18:19 -32.28976 -60.11333 21701 ft 421 kts 49°
2026-04-30 18:19 -32.27245 -60.08473 22189 ft 423 kts 49°
2026-04-30 18:19 -32.25528 -60.05639 22660 ft 426 kts 49°
2026-04-30 18:20 -32.23801 -60.02786 23134 ft 429 kts 49°
2026-04-30 18:20 -32.22084 -59.99948 23584 ft 431 kts 49°
2026-04-30 18:20 -32.20340 -59.97064 23958 ft 433 kts 49°
2026-04-30 18:20 -32.18579 -59.94156 24338 ft 436 kts 49°
2026-04-30 18:21 -32.16785 -59.91202 24716 ft 438 kts 49°
2026-04-30 18:21 -32.15010 -59.88281 25094 ft 440 kts 49°
2026-04-30 18:21 -32.13248 -59.85375 25452 ft 442 kts 49°
2026-04-30 18:21 -32.11455 -59.82422 25808 ft 444 kts 49°
2026-04-30 18:22 -32.09653 -59.79457 26169 ft 446 kts 49°
2026-04-30 18:22 -32.06016 -59.73492 26847 ft 450 kts 49°
2026-04-30 18:22 -32.04184 -59.70497 27192 ft 452 kts 49°
2026-04-30 18:23 -32.02343 -59.67487 27515 ft 454 kts 49°
2026-04-30 18:23 -32.00493 -59.64456 27847 ft 456 kts 49°
2026-04-30 18:23 -31.98639 -59.61415 28180 ft 458 kts 49°
2026-04-30 18:23 -31.96780 -59.58365 28496 ft 460 kts 49°
2026-04-30 18:24 -31.93015 -59.52225 29154 ft 464 kts 48°
2026-04-30 18:24 -31.91122 -59.49146 29459 ft 466 kts 48°
2026-04-30 18:24 -31.89217 -59.46051 29850 ft 466 kts 48°
2026-04-30 18:25 -31.87322 -59.42965 30276 ft 465 kts 48°
2026-04-30 18:25 -31.83544 -59.36799 30995 ft 464 kts 48°
2026-04-30 18:25 -31.81657 -59.33725 31344 ft 464 kts 48°
2026-04-30 18:26 -31.77869 -59.27578 32047 ft 464 kts 48°
2026-04-30 18:26 -31.75951 -59.24474 32395 ft 464 kts 47°
2026-04-30 18:26 -31.74053 -59.21409 32747 ft 464 kts 47°
2026-04-30 18:27 -31.70255 -59.15281 33450 ft 464 kts 47°
2026-04-30 18:27 -31.68379 -59.12253 33786 ft 464 kts 47°
2026-04-30 18:28 -31.64577 -59.06124 34353 ft 465 kts 47°
2026-04-30 18:28 -31.62671 -59.03052 34604 ft 466 kts 47°
2026-04-30 18:28 -31.58856 -58.96907 35090 ft 466 kts 47°
2026-04-30 18:29 -31.56943 -58.93833 35325 ft 467 kts 46°
2026-04-30 18:29 -31.51181 -58.84598 35997 ft 468 kts 46°
2026-04-30 18:30 -31.47326 -58.78435 36430 ft 469 kts 46°
2026-04-30 18:30 -31.43464 -58.72275 36818 ft 470 kts 46°
2026-04-30 18:31 -31.41530 -58.69189 36964 ft 471 kts 46°
2026-04-30 18:31 -31.37626 -58.62951 36992 ft 479 kts 46°
2026-04-30 18:32 -31.31692 -58.53501 36995 ft 481 kts 46°
2026-04-30 18:33 -31.25737 -58.44033 36998 ft 482 kts 46°
2026-04-30 18:33 -31.19765 -58.34568 37008 ft 483 kts 46°
2026-04-30 18:34 -31.13770 -58.25115 37014 ft 483 kts 46°
2026-04-30 18:35 -31.09770 -58.18802 37018 ft 484 kts 46°
2026-04-30 18:35 -31.05766 -58.12490 37020 ft 484 kts 46°
2026-04-30 18:36 -30.99745 -58.03033 37016 ft 484 kts 46°
2026-04-30 18:37 -30.93717 -57.93581 37012 ft 485 kts 46°
2026-04-30 18:37 -30.89686 -57.87271 37012 ft 485 kts 46°
2026-04-30 18:38 -30.85652 -57.80977 37019 ft 485 kts 45°
2026-04-30 18:38 -30.81610 -57.74682 37012 ft 486 kts 46°
2026-04-30 18:39 -30.77571 -57.68384 37024 ft 486 kts 45°
2026-04-30 18:39 -30.73551 -57.62128 37015 ft 486 kts 45°
2026-04-30 18:40 -30.69473 -57.55797 37014 ft 486 kts 45°
2026-04-30 18:40 -30.65412 -57.49509 37019 ft 486 kts 45°
2026-04-30 18:41 -30.61375 -57.43273 37015 ft 486 kts 45°
2026-04-30 18:41 -30.57310 -57.36996 37018 ft 487 kts 45°
2026-04-30 18:42 -30.53242 -57.30720 37022 ft 487 kts 45°
2026-04-30 18:42 -30.47126 -57.21306 37021 ft 487 kts 45°
2026-04-30 18:45 -30.24623 -56.86882 37025 ft 488 kts 45°
2026-04-30 18:46 -30.20520 -56.80630 37028 ft 488 kts 45°
2026-04-30 18:46 -30.16414 -56.74386 37032 ft 488 kts 45°
2026-04-30 18:47 -30.12303 -56.68139 37031 ft 488 kts 45°
2026-04-30 18:47 -30.08188 -56.61894 37027 ft 488 kts 45°
2026-04-30 18:48 -30.04062 -56.55658 37030 ft 489 kts 45°
2026-04-30 18:48 -29.99931 -56.49426 37031 ft 489 kts 45°
2026-04-30 18:49 -29.95804 -56.43194 37028 ft 489 kts 45°
2026-04-30 18:49 -29.91677 -56.36962 37032 ft 489 kts 45°
2026-04-30 18:50 -29.87540 -56.30730 37031 ft 490 kts 44°
2026-04-30 18:50 -29.84094 -56.25558 37032 ft 490 kts 44°
2026-04-30 18:51 -29.79938 -56.19345 37032 ft 490 kts 44°
2026-04-30 18:51 -29.75787 -56.13128 37030 ft 490 kts 44°
2026-04-30 18:52 -29.71627 -56.06902 37030 ft 490 kts 44°
2026-04-30 18:52 -29.67465 -56.00688 37036 ft 491 kts 44°
2026-04-30 18:53 -29.63308 -55.94469 37036 ft 491 kts 44°
2026-04-30 18:53 -29.59135 -55.88252 37038 ft 491 kts 44°
2026-04-30 18:54 -29.54952 -55.82057 37034 ft 491 kts 44°
2026-04-30 18:54 -29.50761 -55.75852 37036 ft 492 kts 44°
2026-04-30 18:55 -29.46576 -55.69651 37038 ft 492 kts 44°
2026-04-30 18:55 -29.40285 -55.60335 37031 ft 492 kts 44°
2026-04-30 18:56 -29.33982 -55.51038 37032 ft 493 kts 44°
2026-04-30 18:57 -29.27657 -55.41732 37033 ft 493 kts 44°
2026-04-30 18:57 -29.23440 -55.35532 37033 ft 494 kts 44°
2026-04-30 18:58 -29.17101 -55.26219 37035 ft 495 kts 44°
2026-04-30 18:59 -29.10739 -55.16920 37041 ft 495 kts 44°
2026-04-30 19:00 -29.02253 -55.04515 37038 ft 496 kts 44°
2026-04-30 19:01 -28.93735 -54.92124 37035 ft 496 kts 43°
2026-04-30 19:02 -28.87337 -54.82824 37040 ft 497 kts 43°
2026-04-30 19:03 -28.78783 -54.70453 37032 ft 497 kts 43°
2026-04-30 19:04 -28.70213 -54.58076 37045 ft 497 kts 43°
2026-04-30 19:05 -28.61624 -54.45712 37038 ft 498 kts 43°
2026-04-30 19:06 -28.53020 -54.33368 37039 ft 498 kts 43°
2026-04-30 19:06 -28.46555 -54.24116 37042 ft 498 kts 43°
2026-04-30 19:07 -28.40072 -54.14872 37042 ft 499 kts 43°
2026-04-30 19:08 -28.31425 -54.02548 37043 ft 499 kts 43°
2026-04-30 19:09 -28.24923 -53.93317 37046 ft 499 kts 43°
2026-04-30 19:09 -28.20591 -53.87159 37045 ft 500 kts 43°
2026-04-30 19:10 -28.11898 -53.74858 37053 ft 500 kts 43°
2026-04-30 19:11 -28.05363 -53.65637 37056 ft 501 kts 43°
2026-04-30 19:12 -28.01002 -53.59497 37056 ft 501 kts 43°
2026-04-30 19:12 -27.96643 -53.53352 37057 ft 501 kts 43°
2026-04-30 19:13 -27.87894 -53.41072 37063 ft 501 kts 43°
2026-04-30 19:14 -27.83520 -53.34942 37066 ft 501 kts 43°
2026-04-30 19:14 -27.79137 -53.28812 37068 ft 501 kts 43°
2026-04-30 19:15 -27.74753 -53.22688 37064 ft 501 kts 43°
2026-04-30 19:15 -27.68184 -53.13519 37065 ft 501 kts 43°
2026-04-30 19:16 -27.63829 -53.07460 37066 ft 501 kts 43°
2026-04-30 19:17 -27.57265 -52.98230 37070 ft 502 kts 45°
2026-04-30 19:17 -27.51020 -52.88719 37073 ft 503 kts 46°
2026-04-30 19:18 -27.44804 -52.79278 37076 ft 502 kts 45°
2026-04-30 19:19 -27.40572 -52.72972 37088 ft 502 kts 45°
2026-04-30 19:19 -27.34300 -52.63613 37089 ft 502 kts 45°
2026-04-30 19:20 -27.30099 -52.57346 37093 ft 502 kts 45°
2026-04-30 19:21 -27.23800 -52.47968 37090 ft 501 kts 45°
2026-04-30 19:22 -27.15389 -52.35471 37081 ft 502 kts 45°
2026-04-30 19:23 -27.02742 -52.16762 37079 ft 501 kts 46°
2026-04-30 19:24 -26.96420 -52.07423 37088 ft 501 kts 45°
2026-04-30 19:25 -26.85854 -51.91868 37094 ft 502 kts 45°
2026-04-30 19:26 -26.77384 -51.79452 37102 ft 502 kts 45°
2026-04-30 19:27 -26.71022 -51.70152 37110 ft 502 kts 46°
2026-04-30 19:28 -26.64661 -51.60863 37113 ft 502 kts 45°
2026-04-30 19:29 -26.56173 -51.48483 37124 ft 501 kts 45°
2026-04-30 19:30 -26.47672 -51.36135 37119 ft 501 kts 45°
2026-04-30 19:31 -26.39170 -51.23805 37128 ft 501 kts 46°
2026-04-30 19:31 -26.32779 -51.14577 37127 ft 501 kts 46°
2026-04-30 19:32 -26.29238 -51.09475 37125 ft 500 kts 46°
2026-04-30 19:32 -26.24986 -51.03342 37123 ft 500 kts 46°
2026-04-30 19:33 -26.20732 -50.97218 37124 ft 500 kts 46°
2026-04-30 19:33 -26.16470 -50.91092 37125 ft 500 kts 46°
2026-04-30 19:34 -26.12211 -50.84980 37123 ft 500 kts 46°
2026-04-30 19:35 -26.05818 -50.75813 37125 ft 500 kts 46°
2026-04-30 19:35 -26.01556 -50.69711 37124 ft 499 kts 46°
2026-04-30 19:36 -25.97288 -50.63618 37132 ft 499 kts 46°
2026-04-30 19:36 -25.90893 -50.54492 37133 ft 499 kts 46°
2026-04-30 19:37 -25.86635 -50.48407 37130 ft 499 kts 46°
2026-04-30 19:37 -25.82397 -50.42373 37130 ft 499 kts 46°
2026-04-30 19:38 -25.78121 -50.36306 37126 ft 498 kts 46°
2026-04-30 19:38 -25.73852 -50.30253 37131 ft 498 kts 46°
2026-04-30 19:39 -25.69577 -50.24203 37129 ft 498 kts 46°
2026-04-30 19:39 -25.65308 -50.18155 37127 ft 498 kts 46°
2026-04-30 19:40 -25.61035 -50.12108 37128 ft 498 kts 46°
2026-04-30 19:40 -25.56758 -50.06076 37123 ft 498 kts 46°
2026-04-30 19:41 -25.52639 -49.99884 37122 ft 501 kts 50°
2026-04-30 19:41 -25.48727 -49.93497 37119 ft 501 kts 51°
2026-04-30 19:42 -25.44826 -49.87114 37122 ft 501 kts 50°
2026-04-30 19:42 -25.40852 -49.80794 37124 ft 500 kts 50°
2026-04-30 19:43 -25.36848 -49.74512 37118 ft 500 kts 50°
2026-04-30 19:44 -25.30855 -49.65076 37114 ft 499 kts 50°
2026-04-30 19:44 -25.26848 -49.58745 37112 ft 499 kts 50°
2026-04-30 19:45 -25.22889 -49.52506 37122 ft 500 kts 50°
2026-04-30 19:45 -25.18869 -49.46188 37126 ft 499 kts 50°
2026-04-30 19:46 -25.14900 -49.39962 37130 ft 499 kts 50°
2026-04-30 19:46 -25.10880 -49.33668 37123 ft 499 kts 50°
2026-04-30 19:47 -25.06883 -49.27401 37110 ft 499 kts 50°
2026-04-30 19:47 -25.02892 -49.21154 37106 ft 499 kts 50°
2026-04-30 19:48 -24.98889 -49.14903 37110 ft 499 kts 50°
2026-04-30 19:48 -24.94886 -49.08662 37112 ft 498 kts 50°
2026-04-30 19:49 -24.90858 -49.02386 37110 ft 499 kts 50°
2026-04-30 19:49 -24.84847 -48.93044 37104 ft 498 kts 50°
2026-04-30 19:50 -24.80815 -48.86786 37106 ft 498 kts 50°
2026-04-30 19:50 -24.76781 -48.80528 37108 ft 498 kts 50°
2026-04-30 19:51 -24.72748 -48.74278 37112 ft 497 kts 50°
2026-04-30 19:51 -24.68742 -48.68078 37118 ft 497 kts 50°
2026-04-30 19:52 -24.64731 -48.61879 37114 ft 497 kts 50°
2026-04-30 19:52 -24.60728 -48.55696 37114 ft 497 kts 50°
2026-04-30 19:53 -24.56717 -48.49506 37116 ft 497 kts 50°
2026-04-30 19:53 -24.52625 -48.43399 37112 ft 492 kts 42°
2026-04-30 19:54 -24.50100 -48.40936 37114 ft 482 kts 31°
2026-04-30 19:54 -24.47409 -48.38741 37118 ft 482 kts 30°
2026-04-30 19:54 -24.42277 -48.34586 37115 ft 482 kts 30°
2026-04-30 19:55 -24.36873 -48.30232 37120 ft 482 kts 30°
2026-04-30 19:55 -24.31828 -48.26144 37114 ft 482 kts 30°
2026-04-30 19:56 -24.26416 -48.21784 37123 ft 482 kts 31°
2026-04-30 19:56 -24.21009 -48.17430 37123 ft 482 kts 31°
2026-04-30 19:57 -24.15637 -48.13099 37124 ft 482 kts 31°
2026-04-30 19:57 -24.10207 -48.08729 36849 ft 480 kts 31°
2026-04-30 19:58 -24.07512 -48.06563 36274 ft 480 kts 31°
2026-04-30 19:58 -24.04829 -48.04403 35782 ft 478 kts 31°
2026-04-30 19:58 -24.02159 -48.02251 35358 ft 475 kts 31°
2026-04-30 19:58 -23.99504 -48.00114 34957 ft 472 kts 31°
2026-04-30 19:59 -23.96831 -47.97968 34536 ft 469 kts 31°
2026-04-30 19:59 -23.94211 -47.95866 34138 ft 466 kts 31°
2026-04-30 19:59 -23.89022 -47.91705 33231 ft 459 kts 31°
2026-04-30 20:00 -23.86459 -47.89643 32800 ft 456 kts 31°
2026-04-30 20:00 -23.83919 -47.87600 32396 ft 452 kts 31°
2026-04-30 20:00 -23.81392 -47.85568 31987 ft 449 kts 32°
2026-04-30 20:00 -23.79109 -47.83241 31587 ft 453 kts 48°
2026-04-30 20:01 -23.76007 -47.77197 30787 ft 452 kts 61°
2026-04-30 20:01 -23.75097 -47.75162 30538 ft 450 kts 62°
2026-04-30 20:01 -23.73283 -47.71061 30037 ft 447 kts 62°
2026-04-30 20:02 -23.71050 -47.66006 29373 ft 442 kts 62°
2026-04-30 20:02 -23.69697 -47.62967 29004 ft 439 kts 62°
2026-04-30 20:03 -23.66978 -47.56901 27233 ft 457 kts 62°
2026-04-30 20:03 -23.65559 -47.53750 26155 ft 469 kts 62°
2026-04-30 20:03 -23.64117 -47.50544 25385 ft 472 kts 62°
2026-04-30 20:03 -23.62675 -47.47335 24818 ft 469 kts 62°
2026-04-30 20:04 -23.61260 -47.44175 24526 ft 458 kts 62°
2026-04-30 20:04 -23.59876 -47.41077 24146 ft 452 kts 62°
2026-04-30 20:04 -23.58504 -47.38013 23727 ft 447 kts 62°
2026-04-30 20:05 -23.55794 -47.31984 22790 ft 439 kts 62°
2026-04-30 20:05 -23.54455 -47.29010 22344 ft 435 kts 62°
2026-04-30 20:05 -23.51814 -47.23154 21506 ft 427 kts 62°
2026-04-30 20:06 -23.50514 -47.20273 21102 ft 423 kts 62°
2026-04-30 20:06 -23.49216 -47.17395 20569 ft 423 kts 62°
2026-04-30 20:06 -23.47923 -47.14529 20136 ft 420 kts 63°
2026-04-30 20:06 -23.46643 -47.11691 19716 ft 416 kts 63°
2026-04-30 20:07 -23.45368 -47.08877 19290 ft 412 kts 63°
2026-04-30 20:07 -23.44102 -47.06084 18765 ft 412 kts 63°
2026-04-30 20:07 -23.41576 -47.00507 17685 ft 409 kts 63°
2026-04-30 20:08 -23.40324 -46.97742 17163 ft 406 kts 63°
2026-04-30 20:08 -23.39079 -46.94998 16630 ft 403 kts 63°
2026-04-30 20:08 -23.37841 -46.92273 16104 ft 400 kts 63°
2026-04-30 20:08 -23.36612 -46.89568 15583 ft 397 kts 63°
2026-04-30 20:09 -23.35392 -46.86883 15086 ft 394 kts 64°
2026-04-30 20:09 -23.34166 -46.84188 14591 ft 390 kts 64°
2026-04-30 20:09 -23.31782 -46.78946 13587 ft 383 kts 64°
2026-04-30 20:10 -23.29442 -46.73816 12535 ft 375 kts 64°
2026-04-30 20:10 -23.28287 -46.71286 12023 ft 371 kts 64°
2026-04-30 20:10 -23.27145 -46.68784 11580 ft 366 kts 63°
2026-04-30 20:11 -23.25008 -46.64079 11333 ft 323 kts 66°
2026-04-30 20:11 -23.24407 -46.61810 11072 ft 307 kts 84°
2026-04-30 20:11 -23.24500 -46.59532 10588 ft 300 kts 103°
2026-04-30 20:12 -23.26580 -46.55719 9604 ft 298 kts 140°
2026-04-30 20:12 -23.28338 -46.54532 9247 ft 296 kts 159°
2026-04-30 20:12 -23.30234 -46.54017 8931 ft 293 kts 177°
2026-04-30 20:13 -23.32264 -46.54161 8617 ft 289 kts 195°
2026-04-30 20:13 -23.34131 -46.54964 8302 ft 286 kts 213°
2026-04-30 20:13 -23.35650 -46.56320 8008 ft 282 kts 230°
2026-04-30 20:13 -23.36721 -46.58085 7668 ft 280 kts 243°
2026-04-30 20:14 -23.37623 -46.59972 7281 ft 282 kts 244°
2026-04-30 20:14 -23.38535 -46.61874 6884 ft 283 kts 244°
2026-04-30 20:14 -23.39451 -46.63776 6486 ft 282 kts 243°
2026-04-30 20:14 -23.40351 -46.65635 6091 ft 272 kts 242°
2026-04-30 20:15 -23.41208 -46.67381 5987 ft 250 kts 238°
2026-04-30 20:15 -23.42297 -46.68713 6025 ft 226 kts 218°
2026-04-30 20:15 -23.43696 -46.69531 6030 ft 232 kts 198°
2026-04-30 20:15 -23.45292 -46.69774 5899 ft 232 kts 178°
2026-04-30 20:16 -23.46858 -46.69378 5789 ft 232 kts 154°
2026-04-30 20:16 -23.48044 -46.68216 5519 ft 232 kts 119°
2026-04-30 20:16 -23.48320 -46.66526 5168 ft 233 kts 78°
2026-04-30 20:16 -23.47840 -46.64875 5127 ft 221 kts 75°
2026-04-30 20:17 -23.47445 -46.63338 5139 ft 200 kts 76°
2026-04-30 20:17 -23.47084 -46.61943 4951 ft 184 kts 76°
2026-04-30 20:17 -23.46743 -46.60664 4747 ft 170 kts 76°
2026-04-30 20:17 -23.46426 -46.59477 4551 ft 163 kts 77°
2026-04-30 20:18 -23.46114 -46.58316 4342 ft 157 kts 78°
2026-04-30 20:18 -23.45807 -46.57173 4144 ft 158 kts 78°
2026-04-30 20:18 -23.45498 -46.56022 3934 ft 155 kts 78°
2026-04-30 20:18 -23.45197 -46.54906 3755 ft 155 kts 77°
2026-04-30 20:19 -23.44889 -46.53759 3550 ft 157 kts 79°
2026-04-30 20:19 -23.44685 -46.53003 3433 ft 155 kts 79°
2026-04-30 20:19 -23.44287 -46.51521 3080 ft 154 kts 78°
2026-04-30 20:19 -23.43974 -46.50390 2948 ft 159 kts 78°
2026-04-30 20:20 -23.43671 -46.49244 2687 ft 158 kts 78°
2026-04-30 20:20 -23.43385 -46.48191 2500 ft 155 kts 78°
2026-04-30 20:20 -23.43120 -46.47176 2462 ft 120 kts 73°
2026-04-30 20:20 -23.42926 -46.46482 2468 ft 75 kts 74°
2026-04-30 20:21 -23.42821 -46.46199 2463 ft 21 kts 28°
2026-04-30 20:21 -23.42696 -46.46218 2463 ft 16 kts 341°
2026-04-30 20:21 -23.42618 -46.46258 2466 ft 9 kts 318°
2026-04-30 20:21 -23.42628 -46.46330 2464 ft 14 kts 252°
2026-04-30 20:22 -23.42670 -46.46467 2462 ft 22 kts 254°
2026-04-30 20:22 -23.42714 -46.46631 2465 ft 23 kts 252°
2026-04-30 20:22 -23.42763 -46.46798 2464 ft 24 kts 255°
2026-04-30 20:22 -23.42805 -46.46976 2469 ft 24 kts 252°
2026-04-30 20:23 -23.42853 -46.47158 2471 ft 26 kts 255°
2026-04-30 20:23 -23.42905 -46.47351 2464 ft 21 kts 253°
2026-04-30 20:23 -23.42894 -46.47479 2468 ft 18 kts 334°
2026-04-30 20:23 -23.42774 -46.47523 2464 ft 18 kts 347°
2026-04-30 20:24 -23.42707 -46.47507 2471 ft 3 kts 83°
2026-04-30 20:24 -23.42698 -46.47478 2468 ft 5 kts 71°
2026-04-30 20:24 -23.42690 -46.47445 2468 ft 1 kts 75°
2026-04-30 20:24 -23.42689 -46.47440 2467 ft 0 kts 75°